Regional Weather Roundup
Issued by NWS

Home | Current Version | Previous Version | Text Only | Print | Product List | Glossary On
Versions: 1 2 3 4 5 6 7 8 9 10 11 12 13 14 15 16 17 18 19 20 21 22 23 24 25 26 27 28 29 30 31 32 33 34 35 36 37 38 39 40 41 42 43 44 45 46 47 48 49 50
000
ASUS43 KLSX 211210
RWRMO

WEATHER SUMMARY FOR MISSOURI
NATIONAL WEATHER SERVICE SPRINGFIELD MO
700 AM CDT SAT APR 21 2018

NOTE: "FAIR" INDICATES FEW OR NO CLOUDS BELOW 12,000 FEET WITH NO
       SIGNIFICANT WEATHER AND/OR OBSTRUCTIONS TO VISIBILITY.
       CURRENT SKY AND/OR WEATHER CONDITIONS ARE NOT AVAILABLE FOR
       CHILLICOTHE AND FARMINGTON.

MOZ001>031-035>038-043-044-053-054-211300-
...NORTHERN AND WESTERN MISSOURI...

CITY           SKY/WX    TMP DP  RH WIND       PRES   REMARKS
KANSAS CTY INT CLOUDY    48  26  42 E10       30.25S
6HR MIN TEMP:  48; 6HR MAX TEMP:  53;

KANSAS C DTWN  CLOUDY    51  27  39 E7        30.24F
6HR MIN TEMP:  51; 6HR MAX TEMP:  55;

LEE`S SUMMIT   CLOUDY    49  28  44 E9        30.25F
6HR MIN TEMP:  49; 6HR MAX TEMP:  54;

ST JOSEPH      CLOUDY    50  26  39 SE12      30.27S
6HR MIN TEMP:  50; 6HR MAX TEMP:  54;

CHILLICOTHE      N/A     44  29  55 CALM      30.33R
6HR MIN TEMP:  44; 6HR MAX TEMP:  52;

KIRKSVILLE     CLOUDY    43  31  62 NE7       30.34R
6HR MIN TEMP:  42; 6HR MAX TEMP:  50;


$$
MOZ066>068-077>081-088>096-101>105-211300-
...SOUTHWEST MISSOURI...

CITY           SKY/WX    TMP DP  RH WIND       PRES   REMARKS
SPRINGFIELD    CLOUDY    52  29  41 SE9       30.20F
6HR MIN TEMP:  51; 6HR MAX TEMP:  54;

JOPLIN         CLOUDY    48  39  71 E8        30.17S
6HR MIN TEMP:  48; 6HR MAX TEMP:  55; 6HR PCP:  0.03;

BRANSON        MOCLDY    46  28  49 E12       30.21F

$$
MOZ032>034-039>042-045>050-055>058-069>072-211300-
...CENTRAL MISSOURI...

CITY           SKY/WX    TMP DP  RH WIND       PRES   REMARKS
COLUMBIA       CLOUDY    46  26  45 E7        30.29R
6HR MIN TEMP:  44; 6HR MAX TEMP:  50;

JEFFERSON CITY CLOUDY    46  28  49 SE6       30.30R
6HR MIN TEMP:  43; 6HR MAX TEMP:  53;

ROLLA          CLOUDY    44  27  51 E8        30.28R
6HR MIN TEMP:  44; 6HR MAX TEMP:  49;

SEDALIA        CLOUDY    48  30  49 E3        30.28R
6HR MIN TEMP:  47; 6HR MAX TEMP:  54;

WHITEMAN AFB   CLOUDY    47  28  47 E7        30.22R
WARRENSBURG    CLOUDY    45  28  53 NE6       30.25F
OSAGE BEACH    CLOUDY    47  27  45 E7        30.28R

$$
MOZ051-052-059>065-211300-
...EAST CENTRAL MISSOURI...

CITY           SKY/WX    TMP DP  RH WIND       PRES   REMARKS
ST LOUIS INTL  MOCLDY    43  30  60 E8        30.34S
6HR MIN TEMP:  40; 6HR MAX TEMP:  48;

SPIRIT OF STL  PTCLDY    37  32  82 CALM      30.32F
6HR MIN TEMP:  34; 6HR MAX TEMP:  42;

ST CHARLES     PTCLDY    44  32  62 E8        30.34S
6HR MIN TEMP:  39; 6HR MAX TEMP:  47;


$$
MOZ072>076-082>087-097>100-106>115-211300-
...SOUTH CENTRAL AND SOUTHEAST MISSOURI...

CITY           SKY/WX    TMP DP  RH WIND       PRES   REMARKS
CAPE GIRARDEAU FAIR      45  32  60 NE7       30.32R
6HR MIN TEMP:  42; 6HR MAX TEMP:  51;

FARMINGTON     PTCLDY    42  32  67 E8        30.31F
6HR MIN TEMP:  37; 6HR MAX TEMP:  46;

POPLAR BLUFF   FAIR      46  35  65 NE6       30.28S
6HR MIN TEMP:  44; 6HR MAX TEMP:  50;

WEST PLAINS    CLOUDY    48  27  44 E7        30.26S
6HR MIN TEMP:  44; 6HR MAX TEMP:  49;


$$




USA.gov is the U.S. government's official web portal to all federal, state and local government web resources and services.